BREEZE-KM R/B, 41336

Orbit data source: Space-Track

BREEZE-KM R/B, 41336 is space debris in SSO originally from a launch on Tue, 16 Feb 2016 UTC launched from the Plesetsk Missile And Space Complex (PKMTR). Debris objects in space refer to the collection of defunct objects orbiting the Earth. Examples of debris include non-operational satellites, rocket bodies, and fragments generated from explosions, collisions, or faulty payload assembly.

Loading next visibility...
Identifier
41336, 2016-011B
Orbit
SSO
Country
Flag of CISCIS
Related business
Manufacturer
Khrunichev
Mission
Spacecraft
Bus & Motor
BRIZ, S5.92
Mass
2,370 kg wet, 2,370 kg dry
Launch date (UTC)
2016-02-16 (10 years ago)
Launch vehicle
Unknown
Launch site
Plesetsk Missile And Space Complex (PKMTR)
Object type
Payload
Rocket body
Debris
Shape & HBR
Hex Cyl + 1 Rod, 2.0 m
Radar Cross Section
10.190 m², Large (>1 m²)

Expand to show TLE details & history
Last TLE update: 1 day ago

TLE from 1 day ago
0 BREEZE-KM R/B
1 41336U 16011B   25305.44974483  .00010948  00000-0  31576-3 0  9991
2 41336  98.6804 135.8287 0150276 140.5697 220.6591 15.25365182532699
Epoch: 2025-11-01T10:47Z
TLE epoch observation values (Epoch: 2025-11-01T10:47:37.953Z)
Latitude
0.00001°
Longitude
-67.0591°
Altitude
571.706 km
Speed
7.531 km/s
True Right ascension
09h 03m 18s
True Declination
0° 00' 00"
Sunlit
Object was in daylight at epoch
Visualization orbit readout
Latitude
Unknown
Longitude
Unknown
Altitude
Unknown
Speed
Unknown
Apparent Right ascension
Unknown
Apparent Declination
Unknown
Sunlit
N/A
Visualization observer readout
Local Sidereal Time
09:23:34
Azimuth
Unknown
Elevation
Unknown
Doppler factor
Unknown
Orbital elements
Apogee altitude
589.868 km
Perigee altitude
383.544 km
Semi-major axis
6,864.843 km
Eccentricity
0.01503
Inclination
98.6804°
RAAN
135.8287°
Arg. of periapsis
140.5697°
True anomaly
219.55294°
Mean anomaly
220.6591°
Eccentric anomaly
220.10445°
Mean motion
3.8159 °/min
Orbital period
94.34 mins
BSTAR
0.00031576
Loading maneuver chart data...
Computing Atmospheric mass density...
Loading historical data...
Loading historical data...
Loading historical data...
Loading historical data...
Loading historical data...
Loading historical data...
Loading historical data...
Other satellites on launch #11 in the year 2016 (2016-02-16 UTC)

Documentation

Showing up to 5 results
|